[[{"header":{"parameterUnit":"m.s-1","parameterCategory":1,"la1":30.2991,"la2":30.254,"lo1":-89.0895,"lo2":-89.0444,"dy":0.0017,"dx":0.0017,"nx":28,"ny":28,"refTime":"2026-01-29T03:00:00:Z","depth":0,"parameterNumber":2,"parameterNumberName":"U-component_of_WINDS"},"data":[0,0,0,0,0,0,0,0,0,0,0,0,0,0,0,0,0,0,0,0,0,0,0,0,0,0,0,0,0,0,0,0,0,0,0,0,0,0,0,0,0,0,0,0,0,0,0,0,0,0,0,0,0,0,0,0,0,0,-2.5235,-2.5235,0,-2.5276,-2.5276,-2.5277,-2.5265,-2.5264,-2.5263,-2.5262,-2.5303,-2.5304,-2.5306,0,0,0,0,0,0,0,0,0,0,0,0,0,-2.5147,-2.5149,-2.5235,-2.5235,-2.5236,-2.5276,-2.5276,-2.5277,-2.5265,-2.5264,-2.5263,-2.5262,-2.5302,-2.5304,-2.5306,0,0,0,0,0,0,0,0,0,0,0,0,0,-2.5186,-2.5149,-2.5235,-2.5235,-2.5235,-2.5276,-2.5276,-2.5277,-2.5265,-2.5264,-2.5263,-2.5261,-2.5301,-2.5304,-2.5307,-2.5349,0,0,-2.5315,-2.5316,0,0,0,0,0,0,0,0,-2.5184,-2.519,-2.5234,-2.5235,-2.5235,-2.5264,-2.526,-2.5301,-2.5265,-2.5254,-2.5262,-2.5261,-2.5291,-2.5294,-2.5305,-2.5351,-2.5353,-2.5315,-2.5317,-2.5318,-2.5319,0,0,0,0,0,0,0,-2.5181,-2.5188,-2.5251,-2.5235,-2.5236,-2.5233,-2.5237,-2.5268,-2.5279,-2.5255,-2.5254,-2.5259,-2.5291,-2.5302,-2.5305,-2.5353,-2.5315,-2.5318,-2.532,-2.5321,-2.5438,-2.5439,0,0,0,0,0,0,-2.5178,-2.5186,-2.525,-2.5252,-2.5206,-2.5236,-2.524,-2.5256,-2.5278,-2.5281,-2.526,-2.5258,-2.5298,-2.5302,-2.5307,-2.5358,-2.5318,-2.5321,-2.5323,-2.5436,-2.5438,-2.5439,0,0,0,0,0,0,-2.5177,-2.5184,-2.5248,-2.5219,-2.5227,-2.5238,-2.5256,-2.5257,-2.5269,-2.5282,-2.5284,-2.5269,-2.5297,-2.5303,-2.5339,-2.5359,-2.5322,-2.5325,-2.5434,-2.5437,-2.5439,-2.5459,0,0,0,0,0,0,-2.5174,-2.5184,-2.5199,-2.5219,-2.5228,-2.5279,-2.5258,-2.5259,-2.5274,-2.5272,-2.5292,-2.5294,-2.5296,-2.5335,-2.5342,-2.5362,-2.5327,-2.5433,-2.5435,-2.5438,-2.5457,-2.5462,-2.5466,0,0,0,0,0,-2.5171,-2.5203,-2.52,-2.5208,-2.5248,-2.528,-2.5286,-2.5288,-2.5275,-2.5291,-2.5301,-2.5293,-2.5356,-2.5339,-2.5346,-2.5368,-2.5431,-2.5435,-2.5438,-2.5455,-2.5461,-2.5466,0,0,0,0,0,0,-2.5184,-2.5206,-2.5202,-2.5242,-2.526,-2.5278,-2.5298,-2.5295,-2.5316,-2.5313,-2.5316,-2.532,-2.5357,-2.5367,-2.5346,-2.541,-2.5392,-2.5397,-2.5402,-2.5408,-2.5413,-2.5409,-2.5329,0,0,0,0,0,-2.5192,-2.5216,-2.5234,-2.5267,-2.5276,-2.5286,-2.53,-2.5301,-2.5319,-2.5326,-2.5338,-2.5356,-2.538,-2.5395,-2.5418,-2.546,-2.5464,-2.5478,-2.5483,-2.5487,-2.549,-2.5513,-2.552,-2.545,-2.545,-2.545,0,0,-2.5207,-2.5222,-2.5237,-2.527,-2.5284,-2.5309,-2.5292,-2.5319,-2.5338,-2.533,-2.5364,-2.5375,-2.5395,-2.5434,-2.5452,-2.5443,-2.5511,-2.5491,-2.5494,-2.5495,-2.5517,-2.5524,-2.553,-2.5452,-2.5452,-2.5451,0,0,-2.5248,-2.5262,-2.5291,-2.5306,-2.5328,-2.5335,-2.5342,-2.5362,-2.5368,-2.5404,-2.5399,-2.5422,-2.5463,-2.5477,-2.549,-2.554,-2.5534,-2.5548,-2.5571,-2.5593,-2.5599,-2.5604,-2.562,-2.5626,-2.5552,-2.5552,-2.5552,0,-2.5264,-2.5302,-2.5307,-2.5335,-2.5349,-2.5346,-2.5376,-2.539,-2.5417,-2.5428,-2.5418,-2.547,-2.5484,-2.5526,-2.5539,-2.555,-2.5558,-2.5543,-2.5598,-2.5603,-2.5607,-2.5623,-2.563,-2.5553,-2.5553,-2.5553,-2.5553,0,-2.532,-2.5347,-2.5368,-2.5396,-2.5413,-2.5442,-2.5452,-2.5469,-2.547,-2.5478,-2.5515,-2.5531,-2.5557,-2.5568,-2.5569,-2.5612,-2.5605,-2.5597,-2.5578,-2.5615,-2.563,-2.5636,-2.5555,-2.5554,-2.5554,-2.5554,0,0,-2.5366,-2.5399,-2.5406,-2.5419,-2.5444,-2.5465,-2.5495,-2.5521,-2.5536,-2.5556,-2.558,-2.5617,-2.561,-2.5625,-2.5627,-2.5648,-2.5686,-2.5637,-2.5637,-2.5644,-2.5733,-2.5737,-2.5744,-2.5683,-2.5684,-2.5685,-2.5731,0,-2.5408,-2.5459,-2.5466,-2.5511,-2.5536,-2.5535,-2.5561,-2.5579,-2.5589,-2.5611,-2.5622,-2.5647,-2.5636,-2.5645,-2.5666,-2.5676,-2.5703,-2.5674,-2.5705,-2.5706,-2.5697,-2.5752,-2.5757,-2.5798,-2.5737,-2.5738,-2.5739,0,-2.5462,-2.5484,-2.5533,-2.5556,-2.5566,-2.5589,-2.5615,-2.5637,-2.5659,-2.5664,-2.5682,-2.5683,-2.5714,-2.5697,-2.5739,-2.5719,-2.5733,-2.5741,-2.5743,-2.5743,-2.5722,-2.5752,-2.5812,-2.5817,-2.5748,-2.5747,-2.5747,0,-2.5488,-2.5532,-2.5566,-2.5578,-2.5606,-2.5622,-2.5635,-2.5655,-2.5671,-2.5694,-2.5705,-2.5731,-2.5745,-2.5766,-2.5774,-2.5761,-2.5816,-2.5799,-2.5821,-2.582,-2.5829,-2.5828,-2.589,-2.5843,-2.5843,-2.5843,-2.5842,0,-2.5532,-2.5561,-2.5579,-2.5599,-2.5632,-2.5641,-2.5674,-2.5686,-2.5705,-2.5728,-2.573,-2.5752,-2.5763,-2.5787,-2.5794,-2.5828,-2.5835,-2.584,-2.584,-2.5838,-2.5837,-2.5845,-2.5841,-2.5844,-2.5844,-2.5843,-2.5843,0,-2.5566,-2.5579,-2.5616,-2.5641,-2.5648,-2.5671,-2.5692,-2.5713,-2.5724,-2.5754,-2.5761,-2.5778,-2.5807,-2.5818,-2.5853,-2.5858,-2.5896,-2.5896,-2.5888,-2.5888,-2.5908,-2.5906,-2.5975,-2.5984,-2.5933,-2.5934,-2.5934,0,-2.5591,-2.5614,-2.5642,-2.5658,-2.5671,-2.5698,-2.5715,-2.5725,-2.5743,-2.5771,-2.5788,-2.5817,-2.584,-2.5886,-2.5901,-2.5928,-2.5927,-2.595,-2.5931,-2.5928,-2.5925,-2.5923,-2.5925,-2.5952,-2.5953,-2.5953,-2.5953,0,-2.5635,-2.5641,-2.5666,-2.5693,-2.5714,-2.5736,-2.5757,-2.5771,-2.5785,-2.5805,-2.5834,-2.5853,-2.5889,-2.5918,-2.5946,-2.5959,-2.5959,-2.596,-2.5966,-2.5962,-2.5956,-2.5958,-2.5895,-2.5957,-2.5957,-2.5957,-2.5957,-2.5956,-2.5664,-2.5684,-2.5708,-2.5735,-2.5753,-2.5774,-2.5795,-2.5809,-2.5834,-2.5865,-2.5871,-2.5902,-2.5925,-2.5963,-2.5978,-2.6003,-2.5997,-2.6006,-2.6008,-2.601,-2.601,-2.5955,-2.6009,-2.6009,-2.6008,-2.6008,-2.6008,0,-2.5707,-2.5722,-2.5748,-2.5779,-2.5801,-2.5801,-2.5825,-2.5844,-2.5871,-2.5893,-2.5917,-2.5952,-2.598,-2.5999,-2.6028,-2.6044,-2.6045,-2.6051,-2.6049,-2.6052,-2.6014,-2.6005,-2.605,-2.605,-2.605,-2.605,-2.605,-2.605,-2.5731,-2.5765,-2.5774,-2.5818,-2.5834,-2.5865,-2.5879,-2.5898,-2.5916,-2.5955,-2.5978,-2.5991,-2.6012,-2.6043,-2.6069,-2.6074,-2.6084,-2.609,-2.6094,-2.6059,-2.6054,-2.605,-2.6041,-2.6093,-2.6093,-2.6129,-2.613,-2.613]},{"header":{"parameterUnit":"m.s-1","parameterCategory":1,"la1":30.2991,"la2":30.254,"lo1":-89.0895,"lo2":-89.0444,"dy":0.0017,"dx":0.0017,"nx":28,"ny":28,"refTime":"2026-01-29T03:00:00:Z","depth":0,"parameterNumber":3,"parameterNumberName":"V-component_of_WINDS"},"data":[0,0,0,0,0,0,0,0,0,0,0,0,0,0,0,0,0,0,0,0,0,0,0,0,0,0,0,0,0,0,0,0,0,0,0,0,0,0,0,0,0,0,0,0,0,0,0,0,0,0,0,0,0,0,0,0,0,0,3.5231,3.523,0,3.5198,3.5198,3.5198,3.5194,3.5194,3.5195,3.5195,3.5157,3.5155,3.5154,0,0,0,0,0,0,0,0,0,0,0,0,0,3.5285,3.5284,3.5231,3.523,3.523,3.5198,3.5198,3.5198,3.5194,3.5194,3.5195,3.5195,3.5157,3.5155,3.5154,0,0,0,0,0,0,0,0,0,0,0,0,0,3.5258,3.5283,3.5231,3.5224,3.5224,3.5199,3.5198,3.5197,3.5194,3.5194,3.5195,3.5195,3.5158,3.5156,3.5154,3.5131,0,0,3.5148,3.5147,0,0,0,0,0,0,0,0,3.5259,3.5256,3.5226,3.5225,3.5224,3.5201,3.5203,3.5175,3.5194,3.5205,3.5195,3.5195,3.5171,3.5168,3.516,3.513,3.5128,3.5147,3.5146,3.5145,3.5145,0,0,0,0,0,0,0,3.5261,3.5257,3.5218,3.5225,3.5224,3.5222,3.5218,3.5198,3.5185,3.5204,3.5204,3.52,3.517,3.5162,3.5159,3.5127,3.5147,3.5146,3.5144,3.5144,3.5077,3.5076,0,0,0,0,0,0,3.5265,3.5258,3.5219,3.5217,3.5243,3.522,3.5217,3.5208,3.5185,3.5183,3.52,3.52,3.5165,3.5162,3.5158,3.5131,3.5145,3.5143,3.5142,3.5077,3.5077,3.5076,0,0,0,0,0,0,3.5266,3.5261,3.522,3.5238,3.5232,3.5219,3.5209,3.5207,3.5199,3.5182,3.518,3.5194,3.5166,3.5161,3.5138,3.5129,3.5143,3.5141,3.5078,3.5077,3.5076,3.5076,0,0,0,0,0,0,3.5267,3.5262,3.5254,3.5238,3.5231,3.5203,3.5208,3.5206,3.5196,3.5196,3.5176,3.5174,3.5166,3.5141,3.5136,3.5127,3.5139,3.5079,3.5078,3.5077,3.5077,3.5075,3.5074,0,0,0,0,0,3.5269,3.5254,3.5254,3.5249,3.5222,3.5202,3.5198,3.5191,3.5195,3.5187,3.5176,3.5174,3.5131,3.5139,3.5133,3.5123,3.5079,3.5078,3.5077,3.5077,3.5075,3.5074,0,0,0,0,0,0,3.5268,3.5252,3.5251,3.523,3.5218,3.5202,3.5191,3.5189,3.5174,3.5174,3.5164,3.516,3.5138,3.5128,3.5137,3.51,3.5105,3.5103,3.5108,3.5106,3.5104,3.5107,3.5138,0,0,0,0,0,3.5265,3.5252,3.5238,3.5221,3.5215,3.5204,3.5195,3.5191,3.5177,3.5171,3.5158,3.5143,3.5127,3.5116,3.5099,3.5075,3.5071,3.5065,3.5064,3.5063,3.5061,3.5047,3.5045,3.5072,3.5072,3.5072,0,0,3.5259,3.5249,3.5241,3.522,3.521,3.5196,3.5199,3.5183,3.5172,3.5168,3.5147,3.5137,3.5119,3.5097,3.5086,3.5088,3.5052,3.5061,3.506,3.5059,3.5046,3.5043,3.5041,3.5071,3.5071,3.5071,0,0,3.5242,3.5233,3.5218,3.5208,3.5193,3.5186,3.5182,3.5167,3.5161,3.514,3.5136,3.5122,3.5093,3.5081,3.5071,3.5049,3.5046,3.5044,3.5036,3.5023,3.5021,3.5019,3.5012,3.5009,3.5042,3.5042,3.5042,0,3.5236,3.5215,3.521,3.5195,3.5185,3.5183,3.5167,3.5157,3.5137,3.513,3.5133,3.5097,3.5085,3.5059,3.5054,3.5046,3.5041,3.5046,3.5022,3.502,3.5018,3.5011,3.5008,3.5042,3.5042,3.5042,3.5042,0,3.5209,3.5195,3.5184,3.5167,3.5156,3.5141,3.5132,3.5121,3.5118,3.511,3.5089,3.5074,3.5055,3.5049,3.5044,3.5022,3.5024,3.5025,3.503,3.5016,3.5009,3.5006,3.5041,3.5041,3.5041,3.5041,0,0,3.5189,3.517,3.5166,3.5158,3.5142,3.513,3.5114,3.5097,3.5089,3.5075,3.5061,3.5037,3.5038,3.5026,3.5021,3.5009,3.4993,3.5011,3.5011,3.5009,3.4968,3.4968,3.4965,3.4992,3.4991,3.4991,3.497,0,3.5169,3.5143,3.5138,3.5114,3.51,3.5098,3.5084,3.5071,3.5064,3.505,3.5041,3.5024,3.5027,3.502,3.5009,3.4998,3.4985,3.4999,3.4977,3.4977,3.4982,3.4961,3.4961,3.4942,3.4967,3.4967,3.4966,0,3.5143,3.5131,3.5106,3.5093,3.5087,3.5075,3.5059,3.5046,3.5032,3.5027,3.5015,3.5011,3.4993,3.4999,3.4973,3.4983,3.4974,3.4967,3.4966,3.4964,3.4971,3.4958,3.4936,3.4933,3.4962,3.4962,3.4962,0,3.5131,3.5108,3.5091,3.5085,3.5068,3.5059,3.5052,3.5038,3.5029,3.5014,3.5008,3.4991,3.4981,3.4968,3.4958,3.4964,3.4934,3.4939,3.4928,3.4929,3.4922,3.4923,3.4898,3.4916,3.4916,3.4916,3.4916,0,3.511,3.5095,3.5086,3.5075,3.5058,3.5052,3.5035,3.5027,3.5015,3.5002,3.4997,3.4984,3.4973,3.4958,3.4951,3.4931,3.4926,3.4921,3.4919,3.4922,3.4923,3.4916,3.4917,3.4915,3.4915,3.4916,3.4916,0,3.5094,3.5087,3.5068,3.5055,3.5051,3.5039,3.5027,3.5016,3.5008,3.4991,3.4987,3.4975,3.4957,3.4947,3.4924,3.4919,3.4897,3.4896,3.4903,3.4902,3.4892,3.4893,3.4862,3.4858,3.4879,3.4878,3.4878,0,3.5081,3.507,3.5056,3.5048,3.5041,3.5027,3.5018,3.5011,3.5001,3.4984,3.4975,3.4958,3.4944,3.4916,3.4904,3.4887,3.4885,3.4875,3.4882,3.4885,3.4885,3.4886,3.4885,3.4874,3.4874,3.4873,3.4873,0,3.506,3.5057,3.5045,3.5031,3.5021,3.5009,3.4998,3.4991,3.4981,3.497,3.4954,3.4943,3.4921,3.4904,3.4886,3.4876,3.4873,3.4871,3.4868,3.487,3.4875,3.4873,3.49,3.4872,3.4872,3.4872,3.4872,3.4872,3.5045,3.5035,3.5024,3.501,3.5001,3.4991,3.498,3.4972,3.4959,3.4942,3.4938,3.492,3.4906,3.4881,3.4871,3.4857,3.4858,3.4853,3.4852,3.4851,3.4851,3.4878,3.4853,3.4853,3.4853,3.4853,3.4853,0,3.5023,3.5016,3.5004,3.4989,3.4978,3.4978,3.4965,3.4956,3.4941,3.4929,3.4916,3.4896,3.488,3.4867,3.4849,3.484,3.4838,3.4836,3.4836,3.4834,3.485,3.4855,3.4838,3.4838,3.4838,3.4838,3.4838,3.4838,3.5011,3.4994,3.499,3.4969,3.4962,3.4946,3.4939,3.4929,3.4919,3.4899,3.4886,3.4878,3.4865,3.4847,3.4831,3.4828,3.4822,3.482,3.4816,3.4831,3.4833,3.4835,3.4839,3.4818,3.4818,3.4801,3.4801,3.4801]}]]